Home > Weather > Toowoomba > Past weeks

Flag for Australia Past Weather in Toowoomba, Queensland, Australia — Yesterday and Last 2 Weeks

Now
47 °F

Cool.


Feels Like: 47 °F
Forecast: 44 / 67 °F
Wind: No wind

Location: Oakey Aerodrome

Current Time: May 24, 2016 at 11:52:42 PM

Latest Report: May 24, 2016 at 10:00 PM


Visibility: N/A

Pressure: 30.11 "Hg (28.00 "Hg at 597m altitude)

Humidity: 37%

Dew Point: 22 °F

Location of ToowoombaLocation

Past Weather in Toowoomba — Graph

°F

Toowoomba Temperature Yesterday

Maximum temperature yesterday: 78 °F (at 3:00 PM)
Minimum temperature yesterday: 47 °F (at 7:00 AM)
Average temperature yesterday: 62 °F

High & Low Weather Summary for the Past Weeks

 TemperatureHumidityPressure
High82 °F (May 16, 3:00 PM)100% (May 14, 7:00 AM)30.29 "Hg (May 14, 7:00 AM)
Low34 °F (May 12, 4:00 AM)8% (May 24, 3:00 PM)29.89 "Hg (May 10, 3:00 AM)
Average60 °F59%30.11 "Hg
* Reported May 9 10:00 PM — May 24 10:00 PM, Toowoomba, Weather by CustomWeather, © 2016

Note: Actual official high and low records may vary slightly from our data, if they occured in-between our weather recording intervals... More about our weather records

Advertising

Toowoomba Weather History for the Previous 24 Hours

Scroll right to see more
 ConditionsComfort  
Time TempWeatherWind HumidityBarometerVisibility
10:00 PM
Tue, May 24
47 °FCool.No wind37%30.11 "HgN/A
9:00 PM48 °FCool.8 mph32%30.11 "HgN/A
7:00 PM58 °FRefreshingly cool.9 mph22%30.08 "HgN/A
6:00 PM58 °FRefreshingly cool.9 mph20%30.06 "HgN/A
4:00 PM74 °FMild.16 mph9%30.02 "HgN/A
3:00 PM76 °FMild.13 mph8%30.01 "HgN/A
1:00 PM75 °FMild.12 mph9%30.02 "HgN/A
12:00 PM71 °FMild.10 mph21%30.04 "HgN/A
10:00 AM63 °FMild.8 mph46%30.11 "HgN/A
9:00 AM60 °FRefreshingly cool.8 mph52%30.12 "HgN/A
7:00 AM48 °FCool.3 mph80%30.09 "HgN/A
6:00 AM46 °FCool.6 mph78%30.07 "HgN/A
4:00 AM48 °FCool.3 mph80%30.06 "HgN/A
3:00 AM48 °FCool.3 mph75%30.06 "HgN/A
1:00 AM51 °FCool.3 mph75%30.07 "HgN/A
12:00 AM53 °FCool.6 mph72%30.06 "HgN/A
Weather by CustomWeather, © 2016

See weather overviewHow to use our weather pages